Regional Weather Roundup
Issued by NWS Boston, MA

Current Version | Previous Version | Text Only | Print | Product List | Glossary Off
Versions: 1 2 3 4 5 6 7 8 9 10 11 12 13 14 15 16 17 18 19 20 21 22 23 24 25 26 27 28 29 30 31 32 33 34 35 36 37 38 39 40 41 42 43 44 45 46 47 48 49 50
000 ASUS41 KBOX 180710 RWRBOX REGIONAL WEATHER ROUNDUP NATIONAL WEATHER SERVICE BOSTON/NORTON MA 300 AM EDT MON JUN 18 2018 NOTE: "FAIR" INDICATES FEW OR NO CLOUDS BELOW 12,000 FEET WITH NO SIGNIFICANT WEATHER AND/OR OBSTRUCTIONS TO VISIBILITY. MAZALL-180800- EASTERN MASSACHUSETTS CITY SKY/WX TMP DP RH WIND PRES REMARKS BOSTON MOCLDY 67 56 67 SW10 30.01F BEVERLY FAIR 66 55 67 S3 30.00F LAWRENCE FAIR 69 55 60 S7 30.01F BEDFORD FAIR 64 55 72 S6 30.00F BLUE HILL N/A 64 56 75 SW15 30.03F NORWOOD FAIR 61 57 87 S5 30.02F MARSHFIELD FAIR 66 59 77 VRB7 30.03S PLYMOUTH FAIR 64 60 87 S5 30.05F TAUNTON FAIR 65 61 87 SW5 30.04F NEW BEDFORD FAIR 62 62 100 SW5 30.05S $$ MAZALL-180800- CAPE COD AND THE ISLANDS CITY SKY/WX TMP DP RH WIND PRES REMARKS FALMOUTH FAIR 64 63 94 SW9 30.07S HYANNIS FAIR 66 62 87 SW10 30.04S CHATHAM FAIR 63 61 93 SW5 30.07S PROVINCETOWN FAIR 62 60 93 S10 30.04F NANTUCKET FAIR 61 59 93 SW9 30.08S MARTHAS VNYRD FAIR 60 59 96 SW7 30.07S $$ MAZALL-180800- CENTRAL AND WESTERN MASSACHUSETTS CITY SKY/WX TMP DP RH WIND PRES REMARKS WORCESTER FAIR 67 52 58 SW15 30.04F FITCHBURG FAIR 73 53 49 VRB6 30.01F ORANGE FAIR 60 58 92 CALM 30.03F SPRINGFIELD NOT AVBL WESTFIELD FAIR 65 57 75 S7 30.01F NORTH ADAMS FAIR 60 55 83 CALM 30.02F PITTSFIELD FAIR 60 55 83 CALM 30.04F $$ RIZALL-180800- RHODE ISLAND CITY SKY/WX TMP DP RH WIND PRES REMARKS PROVIDENCE FAIR 63 60 90 S5 30.06S NEWPORT FAIR 63 62 97 VRB3 30.06S BLOCK ISLAND FAIR 64 63 96 SW13 30.08S SMITHFIELD FAIR 64 56 75 SW3 30.05F WESTERLY FAIR 63 61 93 CALM 30.07S $$ CTZALL-180800- CONNECTICUT CITY SKY/WX TMP DP RH WIND PRES REMARKS BRADLEY INTL FAIR 66 57 72 S6 30.03F HARTFORD FAIR 67 59 75 S6 30.03F BRIDGEPORT FAIR 67 62 84 CALM 30.05F GROTON FAIR 60 58 92 CALM 30.06S FOG NEW HAVEN FAIR 65 61 87 CALM 30.06S CHESTER FAIR 66 61 82 SW7 30.07S MERIDEN FAIR 63 59 87 CALM 30.05F WILLIMANTIC FAIR 62 59 90 CALM 30.05F OXFORD FAIR 67 59 75 S5 30.07F $$ MEZ002-015-021-024-NHZ003-005-008-011-012-014-VTZ005-008-180800- NORTHERN NEW ENGLAND CITY SKY/WX TMP DP RH WIND PRES REMARKS PORTLAND ME FOG 55 55 100 S3 29.99F VSB 3/4 BANGOR ME MOCLDY 53 51 93 S6 29.97F CONCORD NH FAIR 59 55 87 CALM 29.99F MANCHESTER NH MOCLDY 65 56 72 S5 29.97F NASHUA NH FAIR 61 58 90 CALM 30.00F PORTSMOUTH NH NOT AVBL JAFFREY NH FAIR 68 56 65 VRB5 30.03F KEENE NH FAIR 59 56 89 CALM 30.01F BURLINGTON VT FAIR 77 51 40 S13 29.88F MT. WASHINGTON CLOUDY 54 48 82 W51G58 N/A $$ NYZ052-076-180800- EASTERN NEW YORK CITY SKY/WX TMP DP RH WIND PRES REMARKS ALBANY FAIR 73 54 51 S12 29.99F NEW YORK CITY FAIR 76 62 62 SW7 30.05F $$ ANZALL-180800- MARINE OBSERVATIONS STATION/POSITION TIME TEMP WIND PRES VSBY WAVE AIR SEA DIR/SP/G HT/PER (UTC) (F) (DEG/KT/KT) (MB) (MI) (FT/S) BOSTON BUOY 0650 63 61 180/ 8/ 8 1016.2F 1/ 5 BUZZARDS BAY 0600 64 230/ 11/ 11 1018.8F NANTUCKET SOUND 0650 63 64 210/ 12/ 14 1017.8F 1/ 2 MASS BAY-STELLWA 0604 61 59 1015.1S 1/ 4 ISLE OF SHOALS 0600 59 20/ 2/ 2 1016.1F S OF BLOCK IS 0643 60 N/A 2/ 9 $$ ......................KEY......................... SKY/WX - SKY CONDITION/PRESENT WEATHER TMP - TEMPERATURE IN FAHRENHEIT DWPT - DEWPOINT IN FAHRENHEIT RH - RELATIVE HUMIDITY IN PERCENT WIND - DIRECTION AND SPEED IN MPH PRES - MEAN SEA LEVEL PRESSURE IN INCHES OF HG WCI - WIND CHILL INDEX VSB - VISIBILITY IN MILES HX - HEAT INDEX TC - TEMPERATURE IN CELSIUS VRB - VARIABLE WIND DIRECTION N/A - NOT AVAILABLE

USA.gov is the U.S. government's official web portal to all federal, state and local government web resources and services.